Preview of NWS' New Version of Forecast
This preview is not operational and should not be used for support decisions.

Regional Weather Roundup (RWR)

Issued by National Weather Service (NWS)

                            
000
ASUS43 KLSX 240807
RWRMO 

WEATHER SUMMARY FOR MISSOURI
NATIONAL WEATHER SERVICE SPRINGFIELD MO
300 AM CDT SUN MAR 24 2019

NOTE: "FAIR" INDICATES FEW OR NO CLOUDS BELOW 12,000 FEET WITH NO
       SIGNIFICANT WEATHER AND/OR OBSTRUCTIONS TO VISIBILITY.
       CURRENT SKY AND/OR WEATHER CONDITIONS ARE NOT AVAILABLE FOR
       CHILLICOTHE AND FARMINGTON.

MOZ001>031-035>038-043-044-053-054-240900-
...NORTHERN AND WESTERN MISSOURI...
  
CITY           SKY/WX    TMP DP  RH WIND       PRES   REMARKS
KANSAS CTY INT MOCLDY    49  44  83 SW8       29.98R                  
KANSAS C DTWN  PTCLDY    50  43  77 SE6       29.97F                  
LEE'S SUMMIT   CLEAR     47  42  83 S10       29.97F                  
ST JOSEPH        N/A    N/A N/A N/A MISG      29.96F                  
CHILLICOTHE      N/A     50  45  83 SE5       30.02F                  
KIRKSVILLE     CLOUDY    46  44  93 SE6       30.04F                  
     
$$
MOZ066>068-077>081-088>096-101>105-240900-
...SOUTHWEST MISSOURI...
  
CITY           SKY/WX    TMP DP  RH WIND       PRES   REMARKS
SPRINGFIELD    LGT RAIN  49  45  86 SE17G31   30.01F                  
JOPLIN         CLOUDY    50  47  89 SE9       29.99R                  
BRANSON        LGT RAIN  46  46 100 SE10      30.09F                  
               
$$
MOZ032>034-039>042-045>050-055>058-069>072-240900-
...CENTRAL MISSOURI...  
  
CITY           SKY/WX    TMP DP  RH WIND       PRES   REMARKS
COLUMBIA       MOCLDY    49  42  77 SE10      30.04F                  
JEFFERSON CITY CLOUDY    50  43  77 SE8       30.05F                  
ROLLA          LGT RAIN  48  42  80 SE12G22   30.07F                  
SEDALIA        PTCLDY    49  45  86 S13       30.00F                  
WARRENSBURG    CLEAR     46  43  87 S7        29.99F                  
OSAGE BEACH    CLOUDY    49  45  86 S13       30.04F                  
               
$$
MOZ051-052-059>065-240900-
...EAST CENTRAL MISSOURI...
  
CITY           SKY/WX    TMP DP  RH WIND       PRES   REMARKS
ST LOUIS INTL  CLOUDY    44  42  93 E5        30.11F                  
SPIRIT OF STL  MOCLDY    43  41  93 CALM      30.10F                  
ST CHARLES     PTCLDY    44  42  93 E9        30.10F FOG              
                   
$$
MOZ072>076-082>087-097>100-106>115-240900-
...SOUTH CENTRAL AND SOUTHEAST MISSOURI...
  
CITY           SKY/WX    TMP DP  RH WIND       PRES   REMARKS
CAPE GIRARDEAU CLOUDY    51  41  68 E3        30.13F                  
FARMINGTON     LGT RAIN  46  43  89 S5        30.12F                  
POPLAR BLUFF   LGT RAIN  51  43  74 NE5       30.13F                  
WEST PLAINS    CLOUDY    48  43  82 E8        30.08F                  
                                       
$$